Location: Kitchener
(43.4500°N, 80.5000°W)
Time: 03:40:09
(UTC-05:00)

Tiangong 2 - Visible Passes

Search period start: 21 November 2018 00:00
Search period end: 01 December 2018 00:00
Orbit: 382 x 393 km, 42.8° (Epoch: 21 November)

Date Brightness Start Highest point End Pass type
(mag) Time Alt. Az. Time Alt. Az. Time Alt. Az.
24 Nov 3.5 06:35:36 10° SSW 06:38:12 23° SSE 06:40:48 10° E visible
25 Nov 4.0 05:37:56 10° S 05:39:47 14° SSE 05:41:37 10° ESE visible
26 Nov 2.6 06:14:38 10° SW 06:17:36 35° SSE 06:20:34 10° E visible
27 Nov 3.1 05:19:06 23° SSE 05:19:06 23° SSE 05:21:43 10° E visible
27 Nov 1.4 06:52:26 10° WSW 06:55:37 68° S 06:58:49 10° E visible
28 Nov 1.7 05:55:51 31° SW 05:57:02 51° SSE 06:00:09 10° E visible
29 Nov 3.8 05:00:11 20° ESE 05:00:11 20° ESE 05:01:27 10° E visible
29 Nov 1.1 06:32:29 14° W 06:35:07 79° S 06:38:20 10° E visible
30 Nov 1.4 05:36:43 64° SE 05:36:43 64° SE 05:39:40 10° E visible
